Starlink 5719

operational
NORAD ID: 55609 Int'l Des: 2023-020 Owner: SPXS Country: US Constellation: starlink
LEOCIRCULAR

Starlink 5719について

説明を読み込み中...

リアルタイム位置

3D地球を読み込み中...

次回通過

高度履歴

Altitude vs Time

uPlot chart will show altitude changes over time

軌道要素

1 55609U 23020AS 26062.22104273 -.00000658 00000-0 -33676-4 0 9999
2 55609 43.0050 27.0367 0001354 254.5734 105.4959 15.02533733168096
Epoch: Mar 3, 2026 • Age: 35 hours

現在のステータス

高度 568.6 km
速度 7.58 km/s
衛星直下点 -35.43°S, 1.78°W
打ち上げ日 Feb 12, 2023
運用期間 3 years
タイプ internet

技術仕様

分類 Payload
質量 305.00 kg
乾燥質量 290.00 kg
総質量 305.00 kg
長さ 0.20 m
直径 2.80 m
スパン 9.00 m
形状 Box + pan
製造者 SPXS
バスタイプ Starlink
フェーズステータス In Orbit
所有者/国 SPXS/US

大規模コンステレーション

Loading constellations...